Погода в Вятских Полянах

Россия / Кировская область     56°13′22″N   51°04′29″E
темп.,
°C
ветер,
м/с
пор.,
м/с
влажн.,
%
обл.,
%
осадки,
мм/ч
давл.,
гПа
погр.,
м
25 июня, сб
сб2500:00+14ссз22795 0.0 101113
03:00+12сз22865 0.0 101119
06:00+16сз367895 0.0 1011210
09:00+20сз57690 0.0 1011735
12:00+22сз785915 0.1 10101723
15:00+20ссз6106975 0.1 1010930
18:00+20ссз5116945 0.0 1011495
21:00+15сз2273100 0.0 101211
26 июня, вс
вс2600:00+13сз411851 0.0 1013235
03:00+10ссз410810 0.0 1014238
06:00+13ссз511740 0.0 1016687
09:00+16ссз711601 0.0 10161548
12:00+17ссз810505 0.0 10161845
15:00+19ссз69554 0.0 10161974
18:00+17ссз48650 0.0 1016528
21:00+12сз22780 0.0 101718
27 июня, пн
пн2700:00+10зсз22815 0.0 101814
03:00+9з227939 0.0 101718
06:00+14зюз38737 0.0 1016221
09:00+17юз5117442 0.0 1013523
12:00+22зсз6108065 1.1 10111095
15:00+21ссз8118520 4.3 10111042
18:00+17с610661 0.1 1013695
21:00+12с4107286 0.1 1015259
28 июня, вт
вт2800:00+8с23814 0.0 101655
03:00+5ссз37885 0.0 1017152
06:00+8с510665 0.0 1018853
09:00+10ссз7959100 0.0 10181701
12:00+12ссз685355 0.0 10191787
15:00+13ссз6858100 0.0 10191920
18:00+13сз596521 0.0 1018655
21:00+9зсз39805 0.0 1018144
29 июня, ср
ср2900:00+7ссз4118149 0.0 1018255
03:00+6ссз3786100 0.0 1020140
06:00+10ссз4107158 0.0 1020439
09:00+15ссз585649 0.0 1019951
12:00+17сз685357 0.0 10191500
15:00+18ссз68555 0.0 10181595
18:00+16ссз510675 0.0 1018500
21:00+10зсз387559 0.0 1017111